This is the latest recevied weather packets stored in our database for station/object IU1OLT-7. If no packets are shown the sender has not sent any weather packets the latest 10 day(s).
| Time | Temp. | Humidity | Pressure | Rain* | Wind** | Luminosity | Snow |
|---|---|---|---|---|---|---|---|
| 1788314153 | 24.44° C | 48% | 1024.3 hPa | - | - | - | - |
| 1788313253 | 24.44° C | 47% | 1024.2 hPa | - | - | - | - |
| 1788312353 | 23.89° C | 50% | 1024.3 hPa | - | - | - | - |
| 1788311453 | 24.44° C | 48% | 1024.2 hPa | - | - | - | - |
| 1788310553 | 24.44° C | 48% | 1024.3 hPa | - | - | - | - |
| 1788309653 | 25° C | 48% | 1024.3 hPa | - | - | - | - |
| 1788308753 | 25° C | 46% | 1024.4 hPa | - | - | - | - |
| 1788307853 | 25° C | 47% | 1024.4 hPa | - | - | - | - |
| 1788306953 | 25.56° C | 43% | 1024.5 hPa | - | - | - | - |
| 1788306053 | 23.89° C | 54% | 1024.5 hPa | - | - | - | - |
| 1788305153 | 23.33° C | 57% | 1024.6 hPa | - | - | - | - |
| 1788304253 | 25° C | 51% | 1024.6 hPa | - | - | - | - |
| 1788303353 | 25° C | 51% | 1024.6 hPa | - | - | - | - |
| 1788302453 | 25° C | 52% | 1024.6 hPa | - | - | - | - |
| 1788301553 | 25.56° C | 42% | 1024.6 hPa | - | - | - | - |
| 1788300653 | 26.11° C | 40% | 1024.5 hPa | - | - | - | - |
| 1788299753 | 25.56° C | 48% | 1024.5 hPa | - | - | - | - |
| 1788298853 | 25.56° C | 45% | 1024.6 hPa | - | - | - | - |
| 1788297953 | 25.56° C | 47% | 1024.7 hPa | - | - | - | - |
| 1788297053 | 26.11° C | 46% | 1024.6 hPa | - | - | - | - |
| 1788296153 | 25.56° C | 43% | 1024.7 hPa | - | - | - | - |
| 1788295248 | 26.11° C | 46% | 1024.7 hPa | - | - | - | - |
| 1788294348 | 25.56° C | 45% | 1024.8 hPa | - | - | - | - |
| 1788293448 | 26.11° C | 43% | 1024.7 hPa | - | - | - | - |
| 1788292548 | 26.11° C | 41% | 1024.8 hPa | - | - | - | - |
* Rain since midnight (hover to see other rain measurements)
** Current wind speed in m/s (hover to see current wind gust speed)